Home > Weather > Saarbrücken > Past weeks

Flag for Germany Past Weather in Saarbrücken, Saarland, Germany — Yesterday and Last 2 Weeks

Now
64 °F

Scattered clouds.


Feels Like: 64 °F
Forecast: 52 / 65 °F
Wind: 13 mph from Southwest

Location: Saarbruecken / Ensheim

Current Time: Jul 1, 2016 at 10:13:00 AM

Latest Report: Jul 1, 2016 at 9:20 AM


Visibility: N/A

Pressure: 30.04 "Hg

Humidity: 78%

Dew Point: 57 °F

Location of SaarbrückenLocation

Past Weather in Saarbrücken — Graph

°F

Saarbrücken Temperature Yesterday

Maximum temperature yesterday: 72 °F (at 6:20 PM)
Minimum temperature yesterday: 61 °F (at 12:20 AM)
Average temperature yesterday: 65 °F

High & Low Weather Summary for the Past Weeks

 TemperatureHumidityPressure
High90 °F (Jun 23, 3:50 PM)100% (Jun 17, 4:20 AM)30.27 "Hg (Jun 17, 4:20 AM)
Low45 °F (Jun 20, 4:20 AM)41% (Jun 23, 4:20 PM)29.59 "Hg (Jun 16, 8:50 AM)
Average63 °F79%30.05 "Hg
* Reported Jun 16 8:20 AM — Jul 1 8:50 AM, Saarbrücken, Weather by CustomWeather, © 2016

Note: Actual official high and low records may vary slightly from our data, if they occured in-between our weather recording intervals... More about our weather records

Advertising

Saarbrücken Weather History for the Previous 24 Hours

Scroll right to see more
 ConditionsComfort  
Time TempWeatherWind HumidityBarometerVisibility
8:50 AM
Fri, Jul 1
64 °FScattered clouds.12 mph83%30.04 "HgN/A
8:20 AM63 °FPartly sunny.9 mph83%30.04 "HgN/A
7:50 AM61 °FPartly sunny.9 mph88%30.04 "HgN/A
7:20 AM61 °FPartly sunny.9 mph83%30.04 "HgN/A
6:50 AM61 °FPartly sunny.7 mph83%30.04 "HgN/A
6:20 AM61 °FPassing clouds.6 mph83%30.04 "HgN/A
5:50 AM61 °FPassing clouds.3 mph83%30.04 "HgN/A
5:20 AM61 °FPartly cloudy.3 mph83%30.04 "HgN/A
4:50 AM61 °FPartly cloudy.8 mph83%30.04 "HgN/A
4:20 AM61 °FPassing clouds.6 mph83%30.04 "HgN/A
3:50 AM61 °FPassing clouds.7 mph83%30.04 "HgN/A
3:20 AM61 °FPassing clouds.7 mph83%30.04 "HgN/A
2:50 AM61 °FClear.7 mph83%30.04 "Hg10 mi
2:20 AM61 °FPassing clouds.7 mph83%30.04 "HgN/A
1:50 AM61 °FClear.5 mph83%30.04 "Hg10 mi
1:20 AM61 °FClear.3 mph83%30.04 "Hg10 mi
12:50 AM61 °FClear.6 mph83%30.04 "Hg10 mi
12:20 AM61 °FClear.3 mph83%30.04 "Hg10 mi
11:50 PM
Thu, Jun 30
63 °FClear.5 mph77%30.04 "Hg10 mi
11:20 PM63 °FClear.5 mph77%30.04 "Hg10 mi
10:50 PM63 °FClear.7 mph77%30.04 "Hg10 mi
10:20 PM64 °FPassing clouds.6 mph73%30.01 "HgN/A
9:50 PM64 °FPassing clouds.6 mph73%30.01 "HgN/A
9:20 PM66 °FPassing clouds.7 mph68%30.01 "HgN/A
8:50 PM68 °FScattered clouds.12 mph64%30.01 "HgN/A
8:20 PM68 °FBroken clouds.6 mph64%30.01 "HgN/A
7:50 PM68 °FPartly sunny.8 mph64%30.01 "HgN/A
7:20 PM70 °FPartly sunny.9 mph60%29.98 "HgN/A
6:50 PM70 °FPartly sunny.15 mph57%29.98 "HgN/A
6:20 PM72 °FScattered clouds.12 mph61%29.98 "HgN/A
5:50 PM70 °FScattered clouds.9 mph64%29.98 "HgN/A
5:20 PM70 °FScattered clouds.10 mph64%29.98 "HgN/A
4:50 PM70 °FPartly sunny.9 mph64%29.98 "HgN/A
4:20 PM70 °FBroken clouds.10 mph60%30.01 "HgN/A
3:50 PM68 °FPartly sunny.9 mph69%30.01 "HgN/A
3:20 PM68 °FPartly sunny.12 mph60%30.01 "HgN/A
2:50 PM70 °FPartly sunny.8 mph64%30.01 "HgN/A
2:20 PM68 °FPartly sunny.9 mph69%30.01 "HgN/A
1:50 PM68 °FPartly sunny.10 mph64%30.01 "HgN/A
1:20 PM70 °FPartly sunny.10 mph64%30.01 "HgN/A
12:50 PM68 °FPartly sunny.10 mph64%30.01 "HgN/A
12:20 PM66 °FBroken clouds.9 mph68%30.01 "HgN/A
11:50 AM66 °FBroken clouds.10 mph68%30.01 "HgN/A
11:20 AM64 °FBroken clouds.10 mph73%30.01 "HgN/A
10:50 AM64 °FBroken clouds.10 mph73%30.01 "HgN/A
10:20 AM64 °FBroken clouds.12 mph68%30.01 "HgN/A
Weather by CustomWeather, © 2016

See weather overviewHow to use our weather pages